QPF
0.00 0.00 0.00 0.00 0.00 0.00 0.00 0.00 0.00 0.00 0.00 0.00 0.00 0.00 0.00 0.00 0.00 0.00 0.00 0.00 0.00 0.00 0.00 0.00 0.00 0.00 0.00 0.00 0.00 0.00 0.00 0.00 0.00 0.00 0.00 0.00 0.00 0.00 0.00 0.00 0.00 0.00 0.00 0.00 0.00 0.00 0.00 0.00 0.00
0.00 0.00 0.00 0.00 0.00 0.00 0.00 0.00 0.00 0.00 0.00 0.00 0.00 0.00 0.00 0.00 0.00 0.00 0.00 0.00 0.00 0.00 0.00 0.00 0.00 0.00 0.00 0.00 0.00 0.00 0.00 0.00 0.00 0.00 0.00 0.00 0.00 0.00 0.00 0.00 0.00 0.00 0.00 0.00 0.00 0.00 0.00 0.00 0.00
0.00 0.00 0.00 0.00 0.00 0.00 0.00 0.00 0.00 0.00 0.00 0.00 0.00 0.01 0.00 0.01 0.01 0.00 0.01 0.00 0.00 0.00 0.00 0.00 0.00 0.00 0.00 0.00 0.00 0.00 0.00 0.00 0.00 0.00 0.00 0.00 0.00 0.00 0.00 0.00 0.00 0.00 0.00 0.00 0.00 0.00 0.00 0.00 0.00
0.00 0.00 0.00 0.00 0.00 0.00 0.00 0.00 0.00 0.00 0.00 0.00 0.00 0.00 0.00 0.05 0.01 0.00 0.00 0.00 0.00 0.00 0.00 0.00 0.00 0.00 0.00 0.00 0.00 0.00 0.00 0.00 0.00 0.00 0.00 0.00 0.00 0.00 0.00 0.00 0.00 0.00 0.00 0.00 0.00 0.00 0.00 0.00 0.00
0.00 0.00 0.00 0.00 0.00 0.00 0.00 0.00 0.00 0.00 0.00 0.00 0.00 0.01 0.01 0.03 0.00 0.00 0.00 0.00 0.00 0.00 0.00 0.00 0.00 0.00 0.00 0.00 0.00 0.00 0.00 0.00 0.00 0.00 0.00 0.00 0.00 0.00 0.00 0.00 0.00 0.00 0.00 0.00 0.00 0.00 0.00 0.00 0.00
0.00 0.00 0.00 0.00 0.00 0.00 0.00 0.00 0.00 0.00 0.00 0.00 0.00 0.00 0.03 0.05 0.01 0.03 0.06 0.03 0.00 0.00 0.00 0.00 0.00 0.00 0.00 0.00 0.00 0.00 0.00 0.00 0.00 0.00 0.00 0.00 0.00 0.00 0.00 0.00 0.00 0.00 0.00 0.00 0.00 0.00 0.00 0.00 0.00
0.00 0.00 0.00 0.00 0.00 0.00 0.00 0.00 0.00 0.00 0.00 0.00 0.00 0.00 0.04 0.06 0.05 0.06 0.10 0.07 0.00 0.00 0.00 0.00 0.00 0.00 0.00 0.00 0.00 0.00 0.00 0.00 0.00 0.00 0.00 0.00 0.00 0.00 0.00 0.00 0.00 0.00 0.00 0.00 0.00 0.00 0.00 0.00 0.00
0.00 0.00 0.00 0.00 0.00 0.00 0.00 0.00 0.00 0.00 0.00 0.00 0.00 0.00 0.02 0.05 0.08 0.04 0.05 0.02 0.00 0.00 0.00 0.00 0.00 0.00 0.00 0.00 0.00 0.00 0.00 0.00 0.00 0.00 0.00 0.00 0.00 0.00 0.00 0.00 0.00 0.00 0.00 0.00 0.00 0.00 0.00 0.00 0.00
0.00 0.00 0.00 0.00 0.00 0.00 0.00 0.00 0.00 0.00 0.00 0.00 0.00 0.00 0.01 0.04 0.10 0.03 0.01 0.01 0.00 0.01 0.00 0.00 0.02 0.00 0.00 0.00 0.00 0.00 0.00 0.00 0.00 0.00 0.00 0.00 0.00 0.00 0.00 0.00 0.00 0.00 0.00 0.00 0.00 0.00 0.00 0.00 0.00
0.00 0.00 0.00 0.00 0.00 0.00 0.00 0.00 0.00 0.00 0.00 0.00 0.00 0.00 0.01 0.07 0.05 0.03 0.01 0.00 0.01 0.02 0.01 0.00 0.00 0.00 0.00 0.00 0.00 0.00 0.00 0.00 0.00 0.00 0.00 0.00 0.00 0.00 0.00 0.00 0.00 0.00 0.00 0.00 0.00 0.00 0.00 0.00 0.00
0.00 0.00 0.00 0.00 0.00 0.00 0.00 0.00 0.00 0.00 0.00 0.00 0.00 0.00 0.01 0.01 0.00 0.01 0.00 0.00 0.00 0.01 0.01 0.00 0.00 0.00 0.00 0.00 0.00 0.00 0.00 0.00 0.00 0.00 0.00 0.00 0.00 0.00 0.00 0.00 0.00 0.00 0.00 0.00 0.00 0.00 0.00 0.00 0.00
0.00 0.00 0.00 0.00 0.00 0.00 0.00 0.00 0.00 0.00 0.00 0.00 0.00 0.00 0.00 0.00 0.00 0.00 0.00 0.00 0.00 0.00 0.00 0.00 0.00 0.00 0.00 0.00 0.00 0.00 0.00 0.00 0.00 0.00 0.00 0.00 0.00 0.00 0.00 0.00 0.00 0.00 0.00 0.00 0.00 0.00 0.00 0.00 0.00
0.00 0.00 0.00 0.00 0.00 0.00 0.00 0.00 0.00 0.00 0.00 0.00 0.00 0.00 0.00 0.00 0.00 0.00 0.00 0.00 0.00 0.00 0.00 0.00 0.00 0.00 0.00 0.00 0.00 0.00 0.00 0.00 0.00 0.00 0.00 0.00 0.00 0.00 0.00 0.00 0.00 0.00 0.00 0.00 0.00 0.00 0.00 0.00 0.00
0.00 0.00 0.00 0.00 0.00 0.00 0.00 0.00 0.00 0.00 0.00 0.00 0.00 0.00 0.00 0.00 0.00 0.00 0.00 0.00 0.00 0.00 0.00 0.00 0.00 0.00 0.00 0.00 0.00 0.00 0.00 0.00 0.00 0.00 0.00 0.00 0.00 0.00 0.00 0.00 0.00 0.00 0.00 0.00 0.00 0.00 0.00 0.00 0.00
0.00 0.00 0.00 0.00 0.00 0.00 0.00 0.00 0.00 0.00 0.00 0.00 0.00 0.00 0.00 0.00 0.00 0.00 0.00 0.00 0.00 0.00 0.00 0.00 0.00 0.00 0.00 0.00 0.00 0.00 0.00 0.00 0.00 0.00 0.00 0.00 0.00 0.00 0.00 0.00 0.00 0.00 0.00 0.00 0.00 0.00 0.00 0.00 0.00
0.00 0.00 0.00 0.00 0.00 0.00 0.00 0.00 0.00 0.00 0.00 0.00 0.00 0.00 0.00 0.00 0.00 0.00 0.00 0.00 0.00 0.00 0.00 0.00 0.00 0.00 0.00 0.00 0.00 0.00 0.00 0.00 0.00 0.00 0.00 0.00 0.00 0.00 0.00 0.00 0.00 0.00 0.00 0.00 0.00 0.00 0.00 0.00 0.00
0.00 0.00 0.00 0.00 0.00 0.00 0.00 0.00 0.00 0.00 0.00 0.00 0.00 0.00 0.00 0.00 0.00 0.00 0.00 0.00 0.00 0.00 0.00 0.00 0.00 0.00 0.00 0.00 0.00 0.00 0.00 0.00 0.00 0.00 0.00 0.00 0.00 0.00 0.00 0.00 0.00 0.00 0.00 0.00 0.00 0.00 0.00 0.00 0.00
0.00 0.00 0.00 0.00 0.00 0.00 0.00 0.00 0.00 0.00 0.00 0.01 0.01 0.00 0.00 0.00 0.00 0.00 0.00 0.00 0.00 0.00 0.00 0.00 0.00 0.00 0.00 0.00 0.00 0.00 0.00 0.00 0.00 0.00 0.00 0.00 0.00 0.00 0.00 0.00 0.00 0.00 0.00 0.00 0.00 0.00 0.00 0.00 0.00
0.00 0.00 0.00 0.00 0.00 0.00 0.00 0.00 0.00 0.00 0.00 0.00 0.00 0.00 0.00 0.00 0.00 0.00 0.01 0.00 0.00 0.00 0.00 0.00 0.00 0.00 0.00 0.00 0.00 0.00 0.00 0.00 0.00 0.00 0.00 0.00 0.00 0.00 0.00 0.00 0.00 0.00 0.00 0.00 0.00 0.00 0.00 0.00 0.00
0.00 0.00 0.00 0.00 0.00 0.00 0.00 0.00 0.00 0.00 0.00 0.00 0.00 0.00 0.00 0.00 0.00 0.00 0.00 0.00 0.00 0.00 0.00 0.00 0.00 0.00 0.00 0.00 0.00 0.00 0.00 0.00 0.00 0.00 0.00 0.00 0.00 0.00 0.00 0.00 0.00 0.00 0.00 0.00 0.00 0.00 0.00 0.00 0.00
0.00 0.00 0.00 0.00 0.00 0.00 0.00 0.00 0.00 0.00 0.00 0.00 0.00 0.01 0.00 0.00 0.00 0.00 0.00 0.00 0.00 0.00 0.00 0.00 0.00 0.00 0.00 0.00 0.00 0.00 0.00 0.00 0.00 0.00 0.00 0.00 0.00 0.00 0.00 0.00 0.00 0.00 0.00 0.00 0.00 0.00 0.00 0.00 0.00
0.00 0.00 0.00 0.00 0.00 0.00 0.00 0.00 0.00 0.00 0.00 0.00 0.00 0.00 0.00 0.00 0.00 0.00 0.00 0.00 0.00 0.00 0.00 0.00 0.00 0.00 0.00 0.00 0.00 0.00 0.00 0.00 0.00 0.00 0.00 0.00 0.00 0.00 0.00 0.00 0.00 0.00 0.00 0.00 0.00 0.00 0.00 0.00 0.00
0.00 0.00 0.00 0.00 0.00 0.00 0.00 0.00 0.00 0.00 0.00 0.00 0.00 0.00 0.00 0.00 0.00 0.00 0.00 0.00 0.00 0.00 0.00 0.00 0.00 0.00 0.00 0.00 0.00 0.00 0.00 0.00 0.00 0.00 0.00 0.00 0.00 0.00 0.00 0.00 0.00 0.00 0.00 0.00 0.00 0.00 0.00 0.00 0.00
0.00 0.00 0.00 0.00 0.00 0.00 0.00 0.00 0.00 0.00 0.00 0.00 0.00 0.00 0.00 0.00 0.00 0.00 0.00 0.00 0.00 0.00 0.00 0.00 0.00 0.00 0.00 0.00 0.00 0.00 0.00 0.00 0.00 0.00 0.00 0.00 0.00 0.00 0.00 0.00 0.00 0.00 0.00 0.00 0.00 0.00 0.00 0.00 0.00
0.00 0.00 0.00 0.00 0.00 0.00 0.00 0.00 0.00 0.00 0.00 0.00 0.00 0.00 0.00 0.00 0.00 0.00 0.00 0.00 0.00 0.00 0.00 0.00 0.00 0.00 0.00 0.00 0.00 0.00 0.00 0.00 0.00 0.00 0.00 0.00 0.00 0.00 0.00 0.00 0.00 0.00 0.00 0.00 0.00 0.00 0.00 0.00 0.00
0.00 0.00 0.00 0.00 0.00 0.00 0.00 0.00 0.00 0.00 0.00 0.00 0.01 0.02 0.00 0.00 0.00 0.00 0.00 0.00 0.00 0.00 0.00 0.00 0.00 0.00 0.00 0.00 0.00 0.00 0.00 0.00 0.00 0.00 0.00 0.00 0.00 0.00 0.00 0.00 0.00 0.00 0.00 0.00 0.00 0.00 0.00 0.00 0.00
0.00 0.00 0.00 0.00 0.00 0.00 0.00 0.00 0.00 0.00 0.00 0.00 0.01 0.00 0.00 0.00 0.00 0.00 0.00 0.00 0.00 0.00 0.00 0.00 0.00 0.00 0.00 0.00 0.00 0.00 0.00 0.00 0.00 0.00 0.00 0.00 0.00 0.00 0.00 0.00 0.00 0.00 0.00 0.00 0.00 0.00 0.00 0.00 0.00
0.00 0.00 0.00 0.00 0.00 0.00 0.00 0.00 0.00 0.00 0.00 0.01 0.02 0.01 0.00 0.00 0.00 0.00 0.00 0.00 0.00 0.00 0.00 0.00 0.00 0.00 0.00 0.00 0.00 0.00 0.00 0.00 0.00 0.00 0.00 0.00 0.00 0.00 0.00 0.00 0.00 0.00 0.00 0.00 0.00 0.00 0.00 0.00 0.00
0.00 0.00 0.00 0.00 0.00 0.00 0.00 0.00 0.00 0.00 0.00 0.00 0.00 0.00 0.00 0.00 0.00 0.00 0.00 0.00 0.00 0.00 0.00 0.00 0.00 0.00 0.00 0.00 0.00 0.00 0.00 0.00 0.00 0.00 0.00 0.00 0.00 0.00 0.00 0.00 0.00 0.00 0.00 0.00 0.00 0.00 0.00 0.00 0.00
0.00 0.00 0.00 0.00 0.00 0.00 0.00 0.00 0.00 0.00 0.00 0.00 0.00 0.00 0.00 0.00 0.00 0.00 0.00 0.00 0.00 0.00 0.00 0.00 0.00 0.00 0.00 0.00 0.00 0.00 0.00 0.00 0.00 0.00 0.00 0.00 0.00 0.00 0.00 0.00 0.00 0.00 0.00 0.00 0.00 0.00 0.00 0.00 0.00
MSLP
1011.12 1010.40 1010.45 1011.00 1012.28 1013.02 1013.03 1013.35 1012.80 1013.21 1013.28 1013.65 1013.45 1013.88 1014.96 1015.16 1016.40 1019.33 1020.12 1019.91 1020.16 1020.13 1020.11 1019.90 1019.80 1019.91 1020.15 1020.37 1020.43 1020.46 1020.43 1020.42 1020.49 1020.69 1020.85 1020.85 1020.80 1020.76 1020.74 1020.74 1020.71 1020.69 1020.68 1020.66 1020.65 1020.58 1020.49 1020.47 1020.53
1010.90 1010.43 1010.58 1011.33 1012.61 1013.53 1013.18 1012.74 1012.61 1012.14 1012.98 1013.37 1013.45 1013.91 1014.80 1016.16 1016.84 1018.97 1019.85 1020.39 1020.45 1020.42 1020.18 1020.18 1020.11 1020.07 1020.19 1020.44 1020.58 1020.68 1020.80 1020.73 1020.66 1020.84 1021.05 1021.17 1021.07 1021.09 1021.19 1021.17 1021.15 1021.05 1020.99 1021.02 1021.01 1020.97 1020.94 1020.86 1020.71
1010.79 1010.78 1011.73 1012.40 1013.23 1013.20 1012.27 1012.85 1012.89 1013.36 1013.34 1012.67 1013.68 1014.28 1015.17 1016.89 1017.32 1018.70 1020.03 1020.46 1020.58 1020.62 1020.56 1020.61 1020.46 1020.48 1020.47 1020.61 1020.92 1020.96 1020.99 1021.33 1021.20 1021.19 1021.34 1021.51 1021.53 1021.49 1021.55 1021.58 1021.62 1021.52 1021.44 1021.42 1021.39 1021.36 1021.33 1021.21 1021.03
1011.02 1011.41 1012.38 1012.78 1013.03 1011.85 1011.73 1012.68 1012.37 1012.95 1013.26 1013.08 1013.75 1014.97 1015.96 1016.85 1017.62 1018.58 1020.01 1020.44 1020.68 1020.82 1020.99 1021.05 1021.02 1021.11 1021.22 1021.12 1021.15 1021.31 1021.27 1021.37 1021.61 1021.71 1021.74 1021.75 1021.79 1021.99 1021.88 1021.95 1021.97 1021.91 1021.85 1021.83 1021.74 1021.71 1021.70 1021.62 1021.43
1011.43 1012.27 1013.03 1013.15 1012.78 1011.77 1011.78 1012.38 1012.29 1012.86 1013.42 1013.99 1014.10 1016.46 1017.55 1018.61 1018.52 1019.44 1019.93 1020.09 1020.60 1021.08 1021.37 1021.62 1021.63 1021.57 1021.66 1021.61 1021.43 1021.62 1021.60 1021.47 1021.79 1021.84 1021.98 1022.31 1022.26 1022.23 1022.33 1022.35 1022.32 1022.35 1022.26 1022.19 1022.11 1021.94 1021.88 1021.94 1021.84
1011.97 1012.66 1013.32 1013.34 1012.50 1012.02 1012.44 1011.80 1012.10 1012.92 1013.54 1014.59 1015.43 1016.50 1019.16 1019.96 1018.96 1020.32 1020.71 1020.86 1021.07 1021.41 1021.74 1021.93 1021.98 1022.00 1021.95 1022.27 1022.10 1022.35 1022.10 1021.83 1022.22 1022.39 1022.27 1022.45 1022.85 1022.65 1022.60 1022.73 1022.74 1022.79 1022.78 1022.78 1022.56 1022.35 1022.29 1022.37 1022.29
1012.17 1013.14 1013.61 1013.12 1012.57 1011.91 1012.72 1012.44 1011.98 1013.09 1013.80 1014.52 1015.47 1017.09 1019.56 1020.52 1020.37 1020.57 1021.14 1021.48 1021.50 1021.99 1022.24 1022.48 1022.45 1022.32 1022.43 1022.54 1022.65 1022.65 1022.77 1022.50 1022.71 1023.02 1022.98 1022.85 1023.31 1023.00 1022.94 1023.24 1023.09 1023.21 1023.19 1023.27 1023.02 1022.71 1022.67 1022.66 1022.70
1011.83 1012.74 1013.25 1012.96 1012.48 1012.52 1012.40 1012.54 1013.38 1013.24 1014.27 1014.60 1015.03 1017.30 1019.04 1020.30 1020.65 1020.91 1021.49 1021.92 1022.02 1022.22 1022.55 1022.81 1023.01 1023.32 1023.37 1023.27 1023.40 1023.17 1022.90 1022.80 1022.98 1023.21 1023.52 1023.60 1023.77 1023.01 1023.45 1023.82 1023.56 1023.57 1023.45 1023.58 1023.45 1023.32 1023.12 1022.93 1022.92
1011.42 1012.62 1013.14 1012.71 1012.22 1012.75 1012.75 1012.96 1013.95 1014.40 1014.89 1015.61 1015.64 1016.73 1018.39 1019.88 1020.59 1020.78 1021.36 1021.95 1022.25 1022.71 1022.89 1023.18 1023.32 1023.52 1023.66 1023.66 1023.62 1023.50 1023.50 1023.50 1023.42 1023.47 1023.64 1023.79 1023.81 1023.51 1024.00 1023.97 1024.06 1023.99 1023.94 1023.99 1023.78 1023.65 1023.47 1023.34 1023.38
1011.68 1012.58 1012.57 1012.08 1012.21 1012.56 1013.04 1013.14 1014.10 1015.33 1016.03 1016.99 1017.27 1018.43 1019.38 1020.01 1020.72 1020.59 1021.46 1022.08 1022.60 1023.06 1023.40 1023.61 1023.86 1023.96 1024.23 1024.20 1024.30 1024.16 1023.71 1023.94 1024.17 1023.80 1023.92 1024.02 1023.75 1024.02 1024.37 1024.48 1024.42 1024.49 1024.33 1024.23 1024.11 1023.85 1023.76 1023.67 1023.75
1011.95 1012.23 1012.13 1012.14 1012.15 1012.10 1012.93 1013.68 1014.37 1015.60 1016.76 1016.36 1017.32 1018.59 1019.71 1020.54 1020.93 1020.94 1021.79 1022.41 1022.93 1023.44 1023.82 1024.12 1024.40 1024.61 1024.66 1024.66 1024.63 1024.62 1024.41 1024.55 1024.71 1024.32 1024.34 1024.37 1024.57 1024.75 1025.01 1025.12 1025.13 1025.09 1024.97 1024.91 1024.65 1024.49 1024.51 1024.33 1024.31
1012.40 1011.93 1012.07 1012.08 1012.43 1012.40 1013.00 1013.83 1014.95 1015.25 1015.82 1016.64 1017.62 1018.78 1019.76 1020.73 1021.24 1021.69 1022.34 1022.87 1023.47 1023.99 1024.44 1024.60 1024.67 1024.76 1025.03 1024.95 1025.02 1024.93 1024.86 1025.14 1025.16 1024.68 1024.53 1024.65 1025.16 1025.38 1025.67 1025.76 1025.91 1025.79 1025.81 1025.48 1025.33 1025.28 1025.21 1025.00 1024.84
1012.34 1012.02 1011.96 1012.44 1012.65 1012.96 1013.41 1014.28 1014.76 1015.95 1016.40 1017.11 1018.03 1019.20 1020.23 1021.14 1021.75 1022.32 1022.82 1023.56 1024.04 1024.38 1024.73 1024.91 1025.19 1025.10 1025.11 1025.25 1025.38 1025.27 1025.39 1025.52 1025.37 1025.09 1025.25 1025.25 1025.71 1026.12 1026.10 1026.41 1026.50 1026.48 1026.28 1026.23 1026.12 1025.91 1025.81 1025.64 1025.46
1012.56 1012.33 1012.09 1012.48 1013.10 1013.42 1013.72 1015.08 1015.09 1017.10 1017.09 1017.73 1018.47 1019.53 1020.50 1021.22 1021.95 1022.64 1023.26 1023.80 1024.34 1024.64 1024.89 1025.01 1025.27 1025.31 1025.20 1025.30 1025.49 1025.57 1025.75 1025.67 1025.62 1025.76 1025.92 1025.95 1026.27 1026.43 1026.60 1026.93 1027.02 1027.07 1026.97 1026.89 1026.76 1026.66 1026.48 1026.46 1026.25
1012.79 1012.67 1012.46 1011.96 1012.88 1013.69 1013.96 1015.94 1016.37 1017.02 1017.42 1018.17 1018.89 1019.91 1020.82 1021.64 1022.25 1022.76 1023.30 1023.97 1024.37 1024.81 1024.98 1025.14 1025.61 1025.61 1025.50 1025.74 1025.72 1025.78 1025.89 1025.94 1026.21 1026.37 1026.36 1026.43 1026.59 1026.83 1027.03 1027.48 1027.72 1027.70 1027.47 1027.32 1027.14 1026.93 1026.83 1026.84 1026.53
1013.22 1013.01 1012.90 1011.97 1012.73 1013.38 1013.77 1016.42 1017.05 1017.26 1017.57 1018.60 1019.21 1019.96 1020.89 1021.72 1022.18 1022.71 1023.31 1023.98 1024.64 1024.85 1025.17 1025.23 1025.16 1025.92 1025.89 1025.80 1025.91 1025.92 1026.25 1026.36 1026.55 1026.78 1026.76 1027.01 1027.23 1027.37 1027.65 1027.97 1028.26 1028.18 1027.97 1027.98 1027.95 1027.97 1027.75 1027.67 1027.45
1013.87 1013.41 1013.04 1012.47 1011.93 1013.12 1014.54 1016.71 1017.41 1017.63 1018.00 1018.87 1019.36 1020.01 1020.73 1021.69 1022.39 1022.75 1023.21 1023.95 1024.57 1024.84 1025.19 1025.41 1025.46 1025.91 1026.21 1026.21 1026.39 1026.55 1026.81 1026.92 1027.07 1027.18 1027.46 1027.61 1027.68 1027.83 1028.00 1028.38 1028.57 1028.41 1028.50 1028.56 1028.55 1028.50 1028.39 1028.30 1028.07
1014.12 1013.68 1012.96 1012.78 1012.56 1013.05 1014.97 1016.46 1017.45 1018.12 1018.52 1019.22 1019.74 1020.19 1020.79 1021.47 1022.11 1022.62 1023.17 1023.79 1024.47 1025.02 1025.29 1025.46 1025.57 1025.78 1025.89 1026.17 1026.69 1026.78 1027.45 1027.43 1027.58 1027.80 1027.88 1028.13 1028.34 1028.37 1028.38 1028.62 1028.80 1028.86 1028.95 1029.06 1028.96 1029.12 1029.06 1029.07 1028.97
1013.86 1013.70 1012.91 1012.39 1012.34 1013.36 1015.11 1016.51 1017.54 1018.35 1018.93 1019.58 1019.99 1020.34 1020.80 1021.12 1021.71 1022.42 1023.05 1023.75 1024.34 1024.88 1025.39 1025.47 1025.88 1026.15 1025.97 1026.33 1026.92 1027.17 1027.51 1027.99 1028.13 1028.11 1028.19 1028.28 1028.56 1028.90 1029.02 1029.27 1029.32 1029.33 1029.64 1029.91 1029.60 1029.54 1029.58 1029.80 1029.55
1013.64 1013.51 1012.74 1012.28 1012.42 1013.57 1015.93 1017.38 1018.35 1018.72 1018.97 1019.35 1019.86 1020.17 1020.31 1020.69 1021.48 1022.38 1022.97 1023.64 1024.11 1024.74 1025.10 1025.50 1025.47 1026.01 1026.01 1026.21 1026.39 1027.01 1027.63 1028.25 1028.41 1028.53 1028.84 1028.80 1028.80 1029.11 1029.33 1029.62 1029.89 1029.99 1030.08 1030.21 1030.09 1029.90 1030.09 1030.29 1030.06
1013.23 1013.05 1012.62 1012.87 1012.62 1014.33 1015.79 1017.72 1018.36 1018.74 1018.98 1019.19 1019.36 1019.53 1019.67 1020.25 1020.95 1022.03 1022.83 1023.31 1023.83 1024.55 1025.06 1025.31 1025.34 1025.68 1025.96 1025.97 1026.67 1027.44 1027.74 1028.52 1028.84 1029.23 1029.28 1029.26 1029.13 1029.26 1029.69 1029.90 1030.09 1030.35 1030.42 1030.57 1030.63 1030.53 1030.50 1030.80 1030.59
1012.67 1012.18 1012.29 1012.74 1013.38 1014.24 1014.77 1016.62 1017.43 1017.91 1018.62 1018.74 1018.78 1018.77 1019.00 1019.77 1020.49 1021.31 1022.13 1022.98 1023.46 1024.14 1024.63 1024.83 1025.14 1025.40 1025.68 1025.95 1026.35 1026.84 1027.41 1028.39 1028.81 1029.05 1029.39 1029.57 1029.47 1029.53 1029.74 1030.02 1030.21 1030.41 1030.58 1030.71 1030.68 1030.74 1030.88 1030.99 1031.24
1012.05 1011.77 1012.12 1012.59 1013.30 1013.86 1014.35 1015.26 1015.89 1016.92 1017.67 1017.53 1017.63 1017.88 1018.30 1018.92 1019.66 1020.45 1021.17 1022.02 1022.86 1023.50 1024.13 1024.33 1024.71 1025.03 1025.29 1025.71 1025.93 1026.45 1027.33 1027.78 1028.38 1029.21 1029.54 1029.65 1029.89 1029.81 1029.93 1030.08 1030.39 1030.63 1030.86 1030.97 1030.91 1030.99 1031.15 1031.35 1031.61
1011.54 1011.82 1012.23 1012.99 1013.54 1013.79 1013.76 1014.35 1015.45 1015.61 1014.93 1015.26 1016.44 1016.74 1017.37 1018.22 1019.08 1019.95 1020.50 1021.41 1022.29 1022.98 1023.63 1023.96 1024.39 1024.72 1025.07 1025.50 1025.76 1026.07 1026.69 1027.48 1028.53 1029.16 1029.63 1029.85 1030.05 1030.15 1030.11 1030.15 1030.36 1030.63 1030.88 1030.98 1031.17 1031.29 1031.41 1031.70 1031.78
1011.50 1012.38 1013.39 1014.09 1014.37 1013.62 1013.23 1013.24 1012.77 1012.88 1012.32 1012.81 1014.07 1015.33 1016.33 1017.30 1018.37 1019.51 1020.04 1020.92 1021.52 1022.31 1023.07 1023.66 1023.95 1024.36 1024.61 1025.00 1025.31 1025.68 1026.12 1026.96 1027.72 1028.50 1029.05 1029.60 1029.96 1030.13 1030.12 1030.30 1030.55 1030.63 1030.79 1030.96 1031.06 1031.27 1031.53 1031.76 1032.03
1011.30 1012.22 1013.44 1014.06 1014.46 1013.91 1013.07 1012.37 1011.70 1011.23 1010.92 1012.22 1013.18 1014.43 1015.72 1016.69 1017.53 1018.55 1019.08 1019.81 1020.62 1021.35 1022.15 1022.81 1023.41 1023.74 1024.20 1024.66 1024.96 1025.35 1025.82 1026.53 1027.29 1027.66 1028.27 1028.71 1029.26 1029.64 1029.84 1030.04 1030.31 1030.51 1030.62 1030.90 1031.07 1031.39 1031.64 1031.78 1032.08
1010.96 1011.64 1012.20 1013.64 1014.21 1014.13 1013.32 1012.22 1011.23 1010.92 1011.72 1012.28 1013.41 1014.81 1015.44 1016.14 1016.75 1017.45 1018.36 1018.93 1019.71 1020.48 1021.11 1021.88 1022.67 1023.13 1023.59 1024.21 1024.72 1025.29 1025.79 1026.31 1026.81 1027.10 1027.58 1028.36 1029.05 1029.31 1029.70 1029.91 1030.12 1030.45 1030.62 1030.79 1031.10 1031.36 1031.55 1031.73 1031.94
1010.05 1010.77 1011.97 1013.31 1014.23 1014.26 1013.32 1012.51 1011.43 1011.16 1011.74 1012.69 1013.37 1014.08 1014.78 1015.36 1016.33 1016.94 1017.64 1018.30 1018.85 1019.62 1020.30 1021.03 1021.59 1022.23 1022.89 1023.74 1024.33 1025.05 1025.52 1026.08 1026.63 1027.03 1027.79 1028.37 1029.01 1029.12 1029.53 1029.81 1030.01 1030.44 1030.65 1030.77 1031.01 1031.37 1031.44 1031.61 1031.84
1009.88 1010.23 1011.17 1012.37 1013.33 1013.97 1013.84 1012.89 1010.79 1010.79 1011.06 1011.87 1012.42 1012.87 1013.57 1014.43 1015.21 1015.89 1016.62 1017.42 1017.99 1018.90 1019.58 1020.14 1020.85 1021.39 1022.28 1023.16 1023.89 1024.73 1025.40 1026.00 1026.52 1026.97 1027.51 1027.97 1028.20 1028.82 1029.21 1029.48 1029.82 1030.17 1030.52 1030.73 1030.99 1031.21 1031.32 1031.53 1031.74
1009.09 1008.99 1010.14 1011.90 1013.28 1013.48 1013.59 1012.03 1010.17 1010.04 1010.65 1010.93 1011.28 1011.99 1012.91 1013.45 1014.15 1015.02 1015.71 1016.55 1017.48 1018.11 1018.82 1019.29 1020.00 1020.67 1021.37 1022.42 1023.37 1024.20 1024.89 1025.58 1026.25 1026.83 1027.50 1027.93 1028.30 1028.58 1028.96 1029.19 1029.42 1029.81 1030.29 1030.63 1030.82 1031.13 1031.32 1031.62 1031.86
Thickness
5831 5835 5833 5817 5775 5758 5751 5756 5774 5761 5761 5773 5778 5763 5747 5749 5735 5703 5716 5718 5710 5706 5704 5706 5706 5703 5700 5697 5696 5695 5695 5694 5693 5691 5688 5687 5686 5685 5685 5684 5684 5682 5681 5681 5681 5681 5681 5680 5679
5831 5834 5826 5801 5753 5731 5744 5771 5765 5779 5779 5779 5777 5771 5751 5730 5740 5721 5714 5712 5705 5702 5703 5703 5702 5701 5699 5696 5695 5693 5691 5690 5690 5688 5685 5682 5683 5682 5680 5680 5679 5679 5678 5676 5676 5676 5675 5675 5676
5832 5830 5801 5774 5746 5738 5752 5767 5764 5766 5774 5776 5763 5768 5754 5727 5734 5723 5714 5706 5702 5700 5700 5698 5698 5696 5695 5692 5689 5688 5688 5684 5684 5684 5682 5679 5677 5676 5675 5675 5673 5673 5672 5671 5671 5671 5670 5670 5670
5823 5814 5796 5763 5758 5774 5775 5766 5775 5769 5772 5777 5766 5747 5754 5747 5733 5726 5712 5705 5701 5698 5696 5694 5693 5689 5686 5686 5685 5682 5682 5681 5679 5676 5675 5673 5673 5671 5672 5670 5668 5667 5667 5666 5666 5667 5666 5665 5665
5819 5795 5761 5754 5757 5783 5783 5780 5781 5770 5768 5765 5764 5732 5728 5727 5729 5718 5713 5709 5701 5695 5691 5688 5686 5685 5682 5680 5680 5677 5677 5678 5674 5672 5670 5666 5666 5666 5664 5662 5660 5660 5661 5661 5661 5662 5662 5660 5659
5795 5784 5746 5738 5760 5780 5775 5789 5786 5773 5769 5759 5745 5736 5716 5719 5724 5710 5705 5701 5697 5692 5688 5683 5680 5679 5678 5673 5673 5669 5671 5673 5668 5664 5664 5662 5658 5659 5658 5656 5654 5654 5654 5653 5655 5656 5656 5653 5651
5787 5766 5750 5756 5764 5776 5766 5784 5782 5771 5762 5757 5753 5726 5713 5709 5712 5707 5700 5694 5692 5686 5681 5676 5675 5674 5671 5669 5668 5666 5664 5664 5661 5656 5655 5656 5651 5652 5652 5650 5650 5648 5648 5646 5647 5649 5649 5648 5644
5794 5777 5759 5760 5757 5761 5775 5779 5775 5773 5759 5770 5759 5721 5710 5708 5710 5706 5696 5690 5687 5683 5678 5673 5667 5662 5662 5663 5660 5660 5661 5660 5657 5653 5649 5649 5645 5651 5648 5644 5644 5643 5643 5640 5640 5640 5642 5642 5640
5811 5760 5744 5756 5766 5764 5774 5767 5771 5766 5755 5751 5753 5740 5725 5713 5707 5702 5695 5688 5684 5677 5673 5668 5665 5661 5658 5658 5658 5657 5654 5653 5652 5652 5650 5647 5644 5647 5642 5642 5640 5638 5637 5635 5635 5635 5636 5635 5632
5786 5757 5765 5780 5776 5765 5768 5771 5764 5751 5743 5733 5731 5725 5715 5711 5701 5699 5692 5684 5680 5673 5668 5664 5661 5659 5656 5655 5651 5651 5653 5650 5647 5649 5648 5644 5645 5642 5638 5636 5635 5633 5633 5631 5631 5632 5631 5629 5626
5786 5760 5777 5781 5778 5783 5770 5764 5764 5743 5727 5738 5726 5717 5710 5703 5697 5697 5689 5682 5677 5671 5666 5660 5655 5652 5650 5649 5647 5645 5645 5644 5642 5642 5642 5642 5639 5636 5632 5631 5630 5628 5626 5626 5626 5625 5621 5621 5618
5770 5783 5782 5777 5778 5777 5769 5765 5749 5748 5743 5741 5729 5719 5711 5700 5695 5690 5683 5676 5670 5665 5659 5655 5653 5650 5646 5644 5642 5640 5639 5635 5635 5639 5640 5640 5634 5630 5627 5624 5621 5621 5618 5618 5616 5613 5611 5611 5608
5777 5779 5781 5774 5772 5770 5769 5754 5750 5740 5743 5737 5727 5715 5703 5693 5687 5683 5678 5670 5664 5659 5655 5652 5647 5647 5645 5640 5636 5635 5632 5630 5632 5634 5632 5632 5628 5623 5622 5617 5614 5613 5612 5610 5607 5605 5602 5600 5598
5775 5775 5770 5769 5766 5766 5757 5744 5747 5729 5736 5727 5720 5707 5699 5691 5684 5678 5672 5666 5660 5656 5652 5649 5645 5643 5642 5639 5633 5631 5627 5627 5627 5626 5625 5623 5620 5618 5616 5611 5609 5606 5604 5602 5600 5597 5594 5591 5588
5772 5758 5762 5768 5758 5751 5756 5728 5722 5727 5726 5718 5712 5703 5694 5687 5681 5675 5671 5664 5659 5653 5650 5646 5640 5639 5638 5633 5631 5628 5624 5624 5622 5619 5618 5617 5615 5612 5609 5603 5599 5597 5596 5594 5592 5590 5587 5583 5581
5753 5754 5735 5760 5753 5752 5752 5706 5719 5723 5720 5708 5706 5699 5688 5683 5680 5673 5668 5661 5654 5651 5646 5643 5640 5635 5633 5632 5629 5627 5622 5621 5619 5615 5614 5610 5607 5605 5602 5598 5594 5592 5590 5587 5583 5579 5577 5574 5571
5734 5723 5731 5739 5759 5748 5734 5700 5712 5718 5711 5702 5701 5698 5689 5679 5675 5670 5666 5659 5652 5649 5644 5641 5639 5635 5630 5628 5624 5621 5616 5615 5613 5611 5608 5604 5603 5601 5597 5593 5589 5587 5583 5580 5575 5570 5566 5563 5560
5716 5723 5730 5728 5745 5739 5715 5702 5703 5706 5702 5695 5691 5689 5684 5676 5673 5669 5663 5658 5651 5645 5641 5638 5637 5635 5633 5626 5620 5619 5609 5610 5607 5604 5603 5598 5595 5594 5591 5587 5583 5579 5575 5571 5568 5560 5556 5552 5547
5728 5723 5724 5735 5745 5726 5714 5697 5699 5697 5694 5687 5684 5681 5678 5679 5677 5668 5661 5655 5649 5643 5638 5636 5631 5628 5629 5624 5616 5613 5608 5603 5601 5600 5598 5597 5591 5585 5582 5578 5575 5572 5567 5560 5557 5553 5546 5542 5540
5719 5715 5722 5735 5741 5723 5695 5688 5689 5689 5691 5687 5681 5680 5680 5679 5674 5664 5658 5654 5650 5643 5638 5632 5631 5625 5625 5622 5617 5609 5603 5599 5596 5594 5589 5588 5586 5580 5576 5572 5567 5562 5558 5553 5550 5546 5538 5530 5528
5711 5713 5718 5715 5733 5703 5695 5678 5683 5687 5688 5684 5682 5681 5682 5677 5673 5662 5656 5652 5647 5640 5634 5630 5628 5624 5621 5619 5612 5603 5599 5591 5588 5585 5583 5581 5579 5576 5568 5564 5560 5554 5550 5544 5539 5536 5531 5522 5518
5697 5726 5721 5716 5705 5680 5704 5663 5680 5685 5680 5683 5684 5684 5683 5676 5673 5665 5658 5651 5646 5639 5633 5630 5626 5622 5619 5615 5611 5605 5599 5591 5585 5582 5576 5572 5571 5568 5563 5558 5553 5548 5542 5536 5531 5526 5522 5516 5508
5701 5723 5715 5713 5697 5694 5695 5672 5672 5681 5676 5684 5686 5686 5684 5680 5673 5666 5660 5654 5646 5640 5633 5631 5625 5620 5618 5613 5611 5606 5596 5592 5585 5576 5571 5568 5564 5559 5555 5551 5545 5539 5533 5527 5522 5517 5511 5505 5498
5717 5711 5708 5696 5685 5660 5692 5678 5658 5672 5689 5694 5689 5688 5686 5678 5674 5666 5662 5655 5646 5639 5632 5628 5624 5619 5615 5610 5607 5603 5597 5589 5578 5572 5566 5560 5556 5552 5548 5545 5539 5533 5525 5519 5513 5507 5500 5493 5488
5701 5677 5648 5644 5647 5656 5696 5680 5683 5690 5708 5709 5699 5691 5689 5681 5673 5664 5659 5652 5647 5640 5632 5626 5622 5618 5613 5609 5605 5600 5597 5589 5582 5572 5564 5556 5551 5547 5543 5537 5531 5526 5519 5513 5507 5499 5491 5484 5476
5681 5673 5638 5631 5632 5650 5684 5662 5676 5706 5718 5711 5705 5694 5687 5679 5675 5668 5663 5657 5649 5643 5634 5629 5621 5618 5612 5607 5603 5600 5595 5587 5579 5573 5565 5559 5551 5545 5539 5534 5526 5519 5513 5506 5499 5491 5483 5476 5469
5676 5657 5684 5654 5658 5639 5655 5675 5692 5703 5696 5698 5694 5685 5681 5678 5674 5670 5663 5659 5651 5643 5638 5631 5622 5617 5611 5605 5600 5594 5588 5582 5576 5571 5564 5555 5548 5541 5535 5528 5520 5511 5504 5498 5490 5483 5475 5468 5460
5680 5690 5658 5640 5628 5627 5647 5655 5656 5685 5686 5682 5683 5681 5681 5681 5673 5670 5665 5659 5653 5645 5639 5632 5627 5619 5613 5603 5598 5590 5585 5577 5570 5564 5556 5550 5540 5535 5528 5520 5513 5503 5495 5488 5482 5474 5467 5459 5451
5666 5662 5667 5661 5644 5619 5613 5634 5680 5685 5688 5682 5685 5689 5686 5682 5677 5673 5667 5660 5654 5646 5639 5633 5628 5623 5613 5603 5596 5586 5579 5572 5565 5559 5551 5544 5539 5529 5521 5514 5505 5496 5487 5480 5472 5464 5458 5450 5441
5679 5684 5679 5627 5640 5637 5610 5628 5692 5691 5687 5689 5690 5691 5687 5684 5681 5673 5667 5660 5652 5646 5639 5635 5629 5623 5615 5605 5595 5585 5577 5569 5561 5553 5544 5538 5530 5523 5514 5506 5499 5490 5480 5471 5462 5455 5447 5439 5430